TimeCST,TemperatureF,Dew PointF,Humidity,Sea Level PressureIn,VisibilityMPH,Wind Direction,Wind SpeedMPH,Gust SpeedMPH,PrecipitationIn,Events,Conditions,WindDirDegrees,DateUTC
12:54 AM,28.0,25.0,88,30.30,10.0,ENE,3.5,-,N/A,,Clear,70,2012-11-29 06:54:00
1:54 AM,28.9,23.0,78,30.30,10.0,East,5.8,-,N/A,,Clear,80,2012-11-29 07:54:00
2:54 AM,30.9,24.1,76,30.30,10.0,East,6.9,-,N/A,,Clear,80,2012-11-29 08:54:00
4:54 AM,27.0,23.0,85,30.28,9.0,East,6.9,-,N/A,,Clear,100,2012-11-29 10:54:00
5:54 AM,27.0,23.0,85,30.27,9.0,East,8.1,-,N/A,,Clear,100,2012-11-29 11:54:00
6:54 AM,27.0,24.1,89,30.27,7.0,East,8.1,-,N/A,,Clear,90,2012-11-29 12:54:00
7:54 AM,32.0,28.0,85,30.27,6.0,East,8.1,-,N/A,,Clear,100,2012-11-29 13:54:00
8:54 AM,37.0,30.9,79,30.26,7.0,East,8.1,-,N/A,,Clear,100,2012-11-29 14:54:00
9:54 AM,43.0,33.1,68,30.25,5.0,North,-9999.0,-,N/A,,Haze,0,2012-11-29 15:54:00
10:54 AM,48.9,34.0,56,30.22,10.0,SSE,5.8,-,N/A,,Clear,160,2012-11-29 16:54:00
11:54 AM,52.0,34.0,50,30.17,10.0,SE,9.2,-,N/A,,Clear,130,2012-11-29 17:54:00
12:54 PM,57.0,34.0,42,30.13,10.0,SE,11.5,-,N/A,,Clear,140,2012-11-29 18:54:00
1:54 PM,59.0,33.1,38,30.10,10.0,SSE,15.0,-,N/A,,Clear,160,2012-11-29 19:54:00
2:54 PM,60.1,33.1,36,30.08,10.0,SSE,12.7,-,N/A,,Clear,150,2012-11-29 20:54:00
3:54 PM,57.9,33.1,39,30.09,10.0,SSE,10.4,-,N/A,,Clear,160,2012-11-29 21:54:00
4:54 PM,51.1,30.9,46,30.10,10.0,SSE,10.4,-,N/A,,Clear,160,2012-11-29 22:54:00
5:54 PM,46.0,28.9,51,30.10,10.0,SSE,9.2,-,N/A,,Clear,160,2012-11-29 23:54:00
6:54 PM,46.0,28.9,51,30.10,10.0,SSE,9.2,-,N/A,,Clear,150,2012-11-30 00:54:00
7:54 PM,44.1,28.0,53,30.10,10.0,ESE,5.8,-,N/A,,Clear,120,2012-11-30 01:54:00
8:54 PM,46.0,28.0,50,30.09,10.0,SSE,5.8,-,N/A,,Clear,150,2012-11-30 02:54:00
9:54 PM,41.0,28.9,62,30.09,10.0,SSE,5.8,-,N/A,,Clear,150,2012-11-30 03:54:00
10:54 PM,42.1,28.9,60,30.11,10.0,SSE,4.6,-,N/A,,Clear,160,2012-11-30 04:54:00
11:54 PM,37.9,27.0,65,30.11,10.0,SE,3.5,-,N/A,,Clear,130,2012-11-30 05:54:00